Location: Taupo
(38.6830°S, 176.0830°E)
Time: 12:46:55
(UTC+13:00)

ISS - Visible Passes

Search period start: 24 January 2019 00:00
Search period end: 03 February 2019 00:00
Orbit: 404 x 410 km, 51.6° (Epoch: 24 January)

Date Brightness Start Highest point End Pass type
(mag) Time Alt. Az. Time Alt. Az. Time Alt. Az.
26 Jan -1.3 05:40:37 10° N 05:42:50 17° NE 05:45:03 10° E visible
28 Jan -2.9 05:33:11 10° NNW 05:36:21 44° NE 05:39:34 10° ESE visible
29 Jan -2.0 04:44:01 19° NNE 04:45:05 22° NE 04:47:46 10° ESE visible
30 Jan -0.9 03:54:46 11° ENE 03:54:46 11° ENE 03:55:08 10° ENE visible
30 Jan -3.7 05:27:29 16° WNW 05:30:00 68° SW 05:33:21 10° SE visible
31 Jan -3.7 04:38:10 54° N 04:38:35 61° NE 04:41:54 10° ESE visible
01 Feb -1.5 03:48:46 20° E 03:48:46 20° E 03:50:13 10° ESE visible
01 Feb -2.4 05:21:29 15° W 05:23:45 30° SSW 05:26:46 10° SSE visible
02 Feb -3.3 04:32:02 50° SW 04:32:12 50° SW 04:35:29 10° SE visible
